TimeEDT,TemperatureF,Dew PointF,Humidity,Sea Level PressureIn,VisibilityMPH,Wind Direction,Wind SpeedMPH,Gust SpeedMPH,PrecipitationIn,Events,Conditions,WindDirDegrees,DateUTC
12:53 AM,21.9,19.0,89,29.85,10.0,Calm,Calm,-,N/A,,Clear,0,2013-03-25 04:53:00
1:53 AM,21.0,18.0,88,29.83,10.0,NNE,3.5,-,N/A,,Clear,30,2013-03-25 05:53:00
2:53 AM,21.0,18.0,88,29.83,10.0,SSE,3.5,-,N/A,,Clear,150,2013-03-25 06:53:00
3:53 AM,21.9,18.0,85,29.81,10.0,Calm,Calm,-,N/A,,Clear,0,2013-03-25 07:53:00
4:53 AM,19.9,17.1,89,29.81,10.0,NNE,4.6,-,N/A,,Clear,30,2013-03-25 08:53:00
5:53 AM,21.0,18.0,88,29.80,10.0,Calm,Calm,-,N/A,,Clear,0,2013-03-25 09:53:00
6:53 AM,21.9,18.0,85,29.80,10.0,NNE,3.5,-,N/A,,Clear,20,2013-03-25 10:53:00
7:53 AM,24.1,21.0,88,29.81,10.0,Calm,Calm,-,N/A,,Scattered Clouds,0,2013-03-25 11:53:00
8:53 AM,30.0,26.1,85,29.81,10.0,ENE,5.8,-,N/A,,Overcast,70,2013-03-25 12:53:00
9:53 AM,32.0,27.0,82,29.79,10.0,ENE,11.5,-,N/A,,Overcast,60,2013-03-25 13:53:00
10:53 AM,34.0,28.0,79,29.78,10.0,ENE,9.2,-,N/A,,Overcast,60,2013-03-25 14:53:00
11:53 AM,36.0,28.0,73,29.76,10.0,ENE,12.7,-,N/A,,Overcast,60,2013-03-25 15:53:00
12:53 PM,37.0,27.0,67,29.74,10.0,East,12.7,-,N/A,,Overcast,80,2013-03-25 16:53:00
1:53 PM,37.9,27.0,65,29.72,10.0,ENE,13.8,-,N/A,,Overcast,60,2013-03-25 17:53:00
2:53 PM,39.0,27.0,62,29.70,10.0,ENE,13.8,-,N/A,,Overcast,70,2013-03-25 18:53:00
3:53 PM,39.9,26.1,58,29.69,10.0,NE,16.1,-,N/A,,Overcast,50,2013-03-25 19:53:00
4:53 PM,41.0,26.1,55,29.69,10.0,NE,17.3,21.9,N/A,,Clear,40,2013-03-25 20:53:00
5:53 PM,39.9,28.0,63,29.68,10.0,NE,11.5,-,N/A,,Clear,40,2013-03-25 21:53:00
6:53 PM,37.9,27.0,65,29.70,10.0,NE,4.6,-,N/A,,Clear,50,2013-03-25 22:53:00
7:53 PM,34.0,26.1,73,29.71,10.0,Calm,Calm,-,N/A,,Clear,0,2013-03-25 23:53:00
8:53 PM,30.9,25.0,79,29.72,10.0,Calm,Calm,-,N/A,,Partly Cloudy,0,2013-03-26 00:53:00
9:53 PM,30.9,27.0,85,29.73,10.0,Calm,Calm,-,N/A,,Overcast,0,2013-03-26 01:53:00
10:53 PM,36.0,26.1,67,29.73,10.0,NE,8.1,-,N/A,,Overcast,40,2013-03-26 02:53:00
11:53 PM,36.0,25.0,64,29.73,10.0,NE,15.0,21.9,N/A,,Overcast,50,2013-03-26 03:53:00